STARLINK-32509, 62042

Orbit data source: Space-Track

STARLINK-32509, 62042 is a payload satellite owned by SpaceX/Seattle (US) in LEO that was launched on Thu, 21 Nov 2024 UTC via an FALCON 9 launch vehicle from the Air Force Eastern Test Range (AFETR). Payload-class satellites include a variety of spacecraft equipped with specific instruments for various scientific and technological missions. These include communications satellites like Starlink; space stations such as the ISS; scientific satellites like the Hubble; Earth observation satellites from companies like Planet Labs, Umbra, and HawkEye 360; GPS; miniature CubeSats for education and research; and military/defense satellites.

Loading next visibility...
Identifier
62042, 2024-216L
Orbit
LEO
Country
Flag of USUS
Related business
Manufacturer
SpaceX/Seattle
Mission
Operational Commercial Communications
Bus & Motor
STARLINK V2M, Unknown motor
Mass
730 kg wet, ~700 kg dry
Launch date (UTC)
2024-11-21 (9 months ago)
Launch vehicle
FALCON 9
Launch site
Air Force Eastern Test Range (AFETR)
Object type
Payload
Rocket body
Debris
Shape & HBR
Box + 2 Pan, 14.5 m
Radar Cross Section
36.964 m², Large (>1 m²)

Expand to show TLE details & history
Last TLE update: 17 hours ago

TLE from 17 hours ago
0 STARLINK-32509
1 62042U 24216L   25241.76977091  .00025989  00000-0  95012-3 0  9992
2 62042  43.0029 260.2156 0001554 278.8694  81.1982 15.27597794 44525
Epoch: 2025-08-29T18:28Z
TLE epoch observation values (Epoch: 2025-08-29T18:28:28.206Z)
Latitude
-0.00001°
Longitude
4.88441°
Altitude
482.609 km
Speed
7.626 km/s
True Right ascension
17h 20m 51s
True Declination
0° 00' 00"
Sunlit
Object was in daylight at epoch
Visualization orbit readout
Latitude
Unknown
Longitude
Unknown
Altitude
Unknown
Speed
Unknown
Apparent Right ascension
Unknown
Apparent Declination
Unknown
Sunlit
N/A
Visualization observer readout
Local Sidereal Time
02:40:44
Azimuth
Unknown
Elevation
Unknown
Doppler factor
Unknown
Orbital elements
Apogee altitude
486.007 km
Perigee altitude
483.874 km
Semi-major axis
6,863.078 km
Eccentricity
0.00016
Inclination
43.0029°
RAAN
260.2156°
Arg. of periapsis
278.8694°
True anomaly
81.2158°
Mean anomaly
81.1982°
Eccentric anomaly
81.207°
Mean motion
3.81737 °/min
Orbital period
94.31 mins
BSTAR
0.00095012
Loading maneuver chart data...
Computing Atmospheric mass density...
Loading historical data...
Loading historical data...
Loading historical data...
Loading historical data...
Loading historical data...
Loading historical data...
Loading historical data...

Documentation

Showing up to 5 results
|